User: anonymous   Login
Location: Oshawa
(43.9000°N, 78.8670°W)
Time: 19:16:50
(UTC-04:00)
Language:

Cosmos 1500 - Orbit

View from above orbital plane
View from above orbital plane
View from above satellite
View from above satellite

Ground track
Ground track

The orbit data is extracted from the following two-line orbital elements,

1 14372U 83099A   15186.51257744  .00003176  00000-0  16804-3 0  9991
2 14372 082.5172 326.7464 0017524 043.7254 002.0452 15.14976280729790
Epoch (UTC): 05 July 2015 12:18:06
Eccentricity: 0.0017524
inclination: 82.5172°
perigee height: 509 km
apogee height: 533 km
right ascension of ascending node: 326.7464°
argument of perigee: 43.7254°
revolutions per day: 15.14976280
mean anomaly at epoch: 2.0452°
orbit number at epoch: 72979

The dashed part of the orbit path shows where the satellite is in the earth's shadow,  

DLR